STARLINK-31842, 59672

Orbit data source: Space-Track

STARLINK-31842, 59672 is a payload satellite owned by SpaceX/Seattle (US) in LEO that was launched on Mon, 06 May 2024 UTC via an FALCON 9 launch vehicle from the Air Force Eastern Test Range (AFETR). Payload-class satellites include a variety of spacecraft equipped with specific instruments for various scientific and technological missions. These include communications satellites like Starlink; space stations such as the ISS; scientific satellites like the Hubble; Earth observation satellites from companies like Planet Labs, Umbra, and HawkEye 360; GPS; miniature CubeSats for education and research; and military/defense satellites.

Loading next visibility...
Identifier
59672, 2024-084U
Orbit
LEO
Country
Flag of USUS
Related business
Manufacturer
SpaceX/Seattle
Mission
Operational Commercial Communications
Bus & Motor
STARLINK V2M, Unknown motor
Mass
730 kg wet, ~700 kg dry
Launch date (UTC)
2024-05-06 (2 years ago)
Launch vehicle
FALCON 9
Launch site
Air Force Eastern Test Range (AFETR)
Object type
Payload
Rocket body
Debris
Shape & HBR
Box + 2 Pan, 17.7 m
Radar Cross Section
33.884 m², Large (>1 m²)

Expand to show TLE details & history
Last TLE update: 2 days ago

TLE from 2 days ago
0 STARLINK-31842
1 59672U 24084U   26171.09496734  .00001106  00000-0  49701-4 0  9999
2 59672  43.0014 180.0944 0001521 276.7966  83.2712 15.27582298120073
Epoch: 2026-06-20T02:16Z
TLE epoch observation values (Epoch: 2026-06-20T02:16:45.178Z)
Latitude
-0.00004°
Longitude
-122.40841°
Altitude
482.696 km
Speed
7.626 km/s
True Right ascension
12h 00m 22s
True Declination
0° 00' 00"
Sunlit
Object was in daylight at epoch
Visualization orbit readout
Latitude
Unknown
Longitude
Unknown
Altitude
Unknown
Speed
Unknown
Apparent Right ascension
Unknown
Apparent Declination
Unknown
Sunlit
N/A
Visualization observer readout
Local Sidereal Time
00:50:01
Azimuth
Unknown
Elevation
Unknown
Doppler factor
Unknown
Orbital elements
Apogee altitude
486.031 km
Perigee altitude
483.943 km
Semi-major axis
6,863.124 km
Eccentricity
0.00015
Inclination
43.0014°
RAAN
180.0944°
Arg. of periapsis
276.7966°
True anomaly
83.28851°
Mean anomaly
83.2712°
Eccentric anomaly
83.27985°
Mean motion
3.81734 °/min
Orbital period
94.31 mins
BSTAR
0.000049701
Loading maneuver chart data...
Computing Atmospheric mass density...
Loading historical data...
Loading historical data...
Loading historical data...
Loading historical data...
Loading historical data...
Loading historical data...
Loading historical data...

Documentation

Showing up to 5 results
|